Location: Unspecified
(0.0000°N, 0.0000°E)
Time: 19:13:24
(UTC+00:00)

STARLINK-11263 [DTC] - Pass Details

Date: 12 March 2026
Orbit: 359 x 360 km, 53.2° (Epoch: 17 April)

Event Time Altitude Azimuth Distance (km) Brightness Sun altitude
Rises 19:11:12 0° 210° (SSW) 2,179 7.2 -15.4°
Reaches altitude 10° 19:13:13 10° 208° (SSW) 1,332 6.0 -15.9°
Maximum altitude 19:16:11 69° 124° (ESE) 385 2.6 -16.6°
Enters shadow 19:16:41 54° 66° (ENE) 442 2.7 -16.7°
